This is the latest recevied weather packets stored in our database for station/object KV9E. If no packets are shown the sender has not sent any weather packets the latest 10 day(s).
| Time | Temp. | Humidity | Pressure | Rain* | Wind** | Luminosity | Snow |
|---|---|---|---|---|---|---|---|
| 1778417795 | 15° C | 98% | 1016.5 hPa | 0 mm | - | 33 W/m² | - |
| 1778417491 | 15° C | 99% | 1016.5 hPa | 0 mm | - | 38 W/m² | - |
| 1778417188 | 15° C | 99% | 1016.4 hPa | 0 mm | - | 37 W/m² | - |
| 1778416885 | 14.44° C | 99% | 1016.5 hPa | 0 mm | - | 38 W/m² | - |
| 1778416580 | 13.89° C | 99% | 1016.6 hPa | 0 mm | - | 47 W/m² | - |
| 1778416277 | 13.89° C | 99% | 1016.5 hPa | 0 mm | - | 33 W/m² | - |
| 1778415973 | 13.89° C | 99% | 1016.1 hPa | 0 mm | - | 28 W/m² | - |
| 1778415669 | 13.89° C | 99% | 1016.4 hPa | 0 mm | - | 27 W/m² | - |
| 1778415366 | 13.33° C | 99% | 1016 hPa | 0 mm | - | 25 W/m² | - |
| 1778415063 | 13.33° C | 99% | 1016.2 hPa | 0 mm | - | 23 W/m² | - |
| 1778414761 | 13.33° C | 99% | 1016.1 hPa | 0 mm | - | 23 W/m² | - |
| 1778414455 | 13.33° C | 99% | 1015.9 hPa | 0 mm | - | 22 W/m² | - |
| 1778414152 | 12.78° C | 99% | 1015.9 hPa | 0 mm | - | 21 W/m² | - |
| 1778413850 | 12.78° C | 99% | 1015.8 hPa | 0 mm | - | 21 W/m² | - |
| 1778413545 | 12.78° C | 99% | 1015.8 hPa | 0 mm | - | 25 W/m² | - |
| 1778413242 | 12.78° C | 99% | 1015.7 hPa | 0 mm | - | 26 W/m² | - |
| 1778412937 | 12.22° C | 99% | 1015.8 hPa | 0 mm | - | 26 W/m² | - |
| 1778412635 | 12.22° C | 99% | 1015.9 hPa | 0 mm | - | 23 W/m² | - |
| 1778412331 | 12.78° C | 99% | 1015.6 hPa | 0 mm | - | 17 W/m² | - |
| 1778412028 | 12.78° C | 99% | 1015.5 hPa | 0 mm | - | 15 W/m² | - |
| 1778411725 | 12.78° C | 99% | 1015.5 hPa | 0 mm | - | 13 W/m² | - |
| 1778411420 | 12.78° C | 99% | 1015.7 hPa | 0 mm | - | 11 W/m² | - |
| 1778411116 | 12.78° C | 99% | 1015.4 hPa | 0 mm | - | 9 W/m² | - |
| 1778410813 | 12.78° C | 99% | 1015.6 hPa | 0 mm | - | 7 W/m² | - |
| 1778410508 | 12.78° C | 99% | 1015.5 hPa | 0 mm | - | 5 W/m² | - |
* Rain latest hour (hover to see other rain measurements)
** Current wind speed in m/s (hover to see current wind gust speed)